Custer, SD

2:29 AM MDT on August 22, 2017 (GMT -0600)
Custer County

Weather History for KCUT - December, 2012

Change the Weather History Date:

Monday, December 3, 2012

  Actual Average Record
Temperature  
Mean Temperature 37 °F 25 °F  
Max Temperature 49 °F 35 °F 63 °F (1959)
Min Temperature 25 °F 15 °F -7 °F (1978)
Degree Days  
Heating Degree Days 28 40  
Month to date heating degree days 74 120  
Since 1 July heating degree days 1965 2301  
Cooling Degree Days 0 0  
Month to date cooling degree days 0 0  
Year to date cooling degree days 390 177  
Moisture  
Dew Point 17 °F    
Average Humidity 50    
Maximum Humidity 70    
Minimum Humidity 30    
Precipitation  
Precipitation T in 0.01 in 0.32 in (1955)
Month to date precipitation T 0.03  
Year to date precipitation 12.25 18.60  
Sea Level Pressure  
Sea Level Pressure 29.89 in    
Wind  
Wind Speed 10 mph (WNW)    
Max Wind Speed 33 mph    
Max Gust Speed 49 mph    
Visibility 10 miles    
Events Rain    
T = Trace of Precipitation, MM = Missing Value Source: NWS Daily Summary

Daily Weather History Graph

Daily Weather History Graph

Search for Another Location

Airport or City:

Trip Planner

Search our weather history database for the weather conditions in past years. The results will help you decide how hot, cold, wet, or windy it might be!

Date:

Astronomy

Dec. 03, 2012 Rise Set
Actual Time 7:11 AM MST 4:17 PM MST
Civil Twilight 6:38 AM MST 4:50 PM MST
Nautical Twilight 6:02 AM MST 5:26 PM MST
Astronomical Twilight 5:28 AM MST 6:00 PM MST
Moon 9:12 PM MST (12/3) 10:30 AM MST (12/3)
Length of Visible Light 10h 11m
Length of Day
9h 06m
Waning Gibbous, 77% of the Moon is Illuminated
Dec 3
Waning Gibbous
Dec 6
Last Quarter
Dec 13
New
Dec 19
First Quarter
Dec 28
Full

Hourly Weather History & Observations

Time (MST) Temp. Windchill Dew Point Humidity Pressure Visibility Wind Dir Wind Speed Gust Speed Precip Events Conditions
12:53 AM 46.9 °F - 30.9 °F 54% 29.48 in 10.0 mi West 23.0 mph 44.9 mph 0.00 in Rain Light Rain
1:53 AM 44.1 °F 36.8 °F 32.0 °F 63% 29.49 in 10.0 mi West 16.1 mph 32.2 mph 0.00 in   Clear
2:53 AM 42.1 °F 37.1 °F 32.0 °F 67% 29.57 in 10.0 mi North 8.1 mph 18.4 mph N/A   Partly Cloudy
3:53 AM 37.9 °F 30.9 °F 28.0 °F 68% 29.65 in 10.0 mi West 10.4 mph 17.3 mph N/A   Partly Cloudy
4:53 AM 37.9 °F 30.9 °F 21.9 °F 53% 29.68 in 10.0 mi NW 10.4 mph 18.4 mph N/A   Overcast
5:53 AM 36.0 °F 28.0 °F 18.0 °F 48% 29.75 in 10.0 mi WNW 11.5 mph 20.7 mph N/A   Overcast
6:53 AM 34.0 °F 25.0 °F 18.0 °F 52% 29.81 in 10.0 mi WNW 12.7 mph 23.0 mph N/A   Partly Cloudy
7:53 AM 33.1 °F 23.4 °F 16.0 °F 50% 29.83 in 10.0 mi WNW 13.8 mph 24.2 mph N/A   Clear
8:53 AM 35.1 °F 25.5 °F 14.0 °F 42% 29.86 in 10.0 mi WNW 15.0 mph 24.2 mph N/A   Clear
9:53 AM 37.0 °F 28.9 °F 12.9 °F 37% 29.88 in 10.0 mi WNW 12.7 mph 19.6 mph N/A   Clear
10:53 AM 39.0 °F 32.3 °F 12.9 °F 34% 29.88 in 10.0 mi NW 10.4 mph 23.0 mph N/A   Clear
11:53 AM 39.9 °F 32.9 °F 10.0 °F 29% 29.88 in 10.0 mi NW 11.5 mph 21.9 mph N/A   Clear
12:53 PM 41.0 °F 32.2 °F 12.0 °F 31% 29.89 in 10.0 mi WNW 18.4 mph 24.2 mph N/A   Clear
1:53 PM 41.0 °F 34.3 °F 14.0 °F 33% 29.89 in 10.0 mi West 11.5 mph 20.7 mph N/A   Clear
2:53 PM 39.9 °F 32.9 °F 14.0 °F 35% 29.94 in 10.0 mi West 11.5 mph 17.3 mph N/A   Clear
3:53 PM 37.0 °F 34.5 °F 15.1 °F 41% 29.99 in 10.0 mi WSW 3.5 mph - N/A   Clear
4:53 PM 33.1 °F 30.0 °F 16.0 °F 50% 30.02 in 10.0 mi SW 3.5 mph - N/A   Clear
5:53 PM 30.0 °F 25.2 °F 16.0 °F 56% 30.07 in 10.0 mi SW 4.6 mph - N/A   Clear
6:53 PM 30.0 °F 25.2 °F 17.1 °F 59% 30.10 in 10.0 mi West 4.6 mph - N/A   Clear
7:53 PM 26.1 °F 20.5 °F 15.1 °F 63% 30.14 in 10.0 mi WNW 4.6 mph - N/A   Clear
8:53 PM 26.1 °F 19.4 °F 15.1 °F 63% 30.14 in 10.0 mi West 5.8 mph - N/A   Clear
9:53 PM 26.1 °F 21.9 °F 15.1 °F 63% 30.16 in 10.0 mi WNW 3.5 mph - N/A   Clear
10:53 PM 28.0 °F 20.8 °F 12.0 °F 51% 30.15 in 10.0 mi West 6.9 mph - N/A   Clear
11:53 PM 27.0 °F 20.5 °F 10.0 °F 49% 30.17 in 10.0 mi West 5.8 mph - N/A   Clear